EW7806 Weather Reports


Display with metric or nautical units.
time (UTC)temp
F
wind
direction
speed
MPH
gust
MPH
rain 1hr
in
rain 24hr
in
rain mn
in
humidity
%
barometer
mb
20260505230434 48 268 0.0 0.0 0.00 0.00 0.00 83 1011.0
20260505225936 48 268 0.0 0.0 0.00 0.00 0.00 83 1011.0
20260505224933 48 248 0.0 0.0 0.00 0.00 0.00 82 1010.9
20260505223939 49 248 0.0 0.0 0.00 0.00 0.00 82 1011.0
20260505223435 49 248 0.0 0.0 0.00 0.00 0.00 82 1011.1
20260505222919 49 248 0.0 0.0 0.00 0.00 0.00 82 1011.1
20260505222416 49 248 0.0 0.0 0.00 0.00 0.00 82 1011.1
20260505221915 49 248 0.0 0.0 0.00 0.00 0.00 82 1011.2
20260505221407 49 248 0.0 0.0 0.00 0.00 0.00 82 1011.1
20260505220915 49 248 0.0 0.0 0.00 0.00 0.00 82 1011.2
20260505215840 49 248 0.0 0.0 0.00 0.00 0.00 82 1011.3
20260505215332 49 248 0.0 0.0 0.00 0.00 0.00 82 1011.3
20260505214831 49 248 0.0 0.0 0.00 0.00 0.00 82 1011.4
20260505214314 49 249 0.0 0.0 0.00 0.00 0.00 82 1011.4
20260505213314 48 249 0.0 0.0 0.00 0.00 0.00 82 1011.5
20260505212803 48 249 0.0 0.0 0.00 0.00 0.00 82 1011.5
20260505212306 48 248 0.0 0.0 0.00 0.00 0.00 81 1011.5
20260505211803 48 249 0.0 0.0 0.00 0.00 0.00 81 1011.5
20260505211253 48 249 0.0 0.0 0.00 0.00 0.00 81 1011.5
20260505210744 49 249 0.0 0.0 0.00 0.00 0.00 80 1011.5
20260505210233 49 248 0.0 0.0 0.00 0.00 0.00 80 1011.4
20260505205713 49 248 0.0 1.0 0.00 0.00 0.00 80 1011.5
20260505205205 49 240 0.0 1.0 0.00 0.00 0.00 79 1011.5
20260505204709 49 240 0.0 1.0 0.00 0.00 0.00 79 1011.5
20260505204205 49 240 0.0 1.0 0.00 0.00 0.00 79 1011.4
20260505203704 49 240 0.0 1.0 0.00 0.00 0.00 79 1011.5
20260505202633 49 242 0.0 1.0 0.00 0.00 0.00 78 1011.5
20260505201608 49 203 0.0 1.0 0.00 0.00 0.00 78 1011.4
20260505201107 49 254 0.0 1.0 0.00 0.00 0.00 78 1011.3
20260505200610 50 114 0.0 1.0 0.00 0.00 0.00 78 1011.3
20260505195105 50 242 0.0 1.0 0.00 0.00 0.00 78 1011.2
20260505194607 50 49 0.0 1.0 0.00 0.00 0.00 78 1011.3
20260505194040 50 102 0.0 2.0 0.00 0.00 0.00 78 1011.3
20260505193035 51 51 0.0 1.0 0.00 0.00 0.00 77 1011.2
20260505192039 51 51 0.0 3.0 0.00 0.00 0.00 76 1011.2
20260505191533 51 246 0.0 3.0 0.00 0.00 0.00 76 1011.2
20260505191032 51 89 0.0 3.0 0.00 0.00 0.00 76 1011.2
20260505190526 51 108 0.0 1.0 0.00 0.00 0.00 75 1011.2
20260505185518 51 30 0.0 1.0 0.00 0.00 0.00 74 1011.1
20260505185030 52 91 0.0 2.0 0.00 0.00 0.00 74 1011.1
20260505184506 52 70 0.0 2.0 0.00 0.00 0.00 74 1011.1
20260505184007 52 32 0.0 2.0 0.00 0.00 0.00 74 1011.0
20260505183003 52 5 0.0 2.0 0.00 0.00 0.00 75 1011.1
20260505182457 52 46 0.0 2.0 0.00 0.00 0.00 74 1011.1
20260505181451 53 240 0.0 2.0 0.00 0.00 0.00 73 1011.1
20260505180433 53 48 0.0 1.0 0.00 0.00 0.00 72 1011.2
20260505175933 53 42 0.0 1.0 0.00 0.00 0.00 71 1011.1
20260505174933 53 46 0.0 2.0 0.00 0.00 0.00 71 1011.1
20260505174414 53 110 0.0 6.0 0.00 0.00 0.00 72 1011.1
20260505173917 53 60 0.0 6.0 0.00 0.00 0.00 71 1011.2
20260505173406 54 27 0.0 2.0 0.00 0.00 0.00 71 1011.1
20260505172905 54 323 0.0 3.0 0.00 0.00 0.00 71 1011.1
20260505172404 54 278 0.0 3.0 0.00 0.00 0.00 71 1011.1
20260505171907 54 65 0.0 2.0 0.00 0.00 0.00 69 1011.1
20260505171406 54 92 0.0 4.0 0.00 0.00 0.00 70 1011.2
20260505170904 55 215 0.0 4.0 0.00 0.00 0.00 70 1011.2
20260505170410 55 9 0.0 1.0 0.00 0.00 0.00 69 1011.1
20260505165905 55 3 0.0 3.0 0.00 0.00 0.00 69 1011.1
20260505164914 55 48 0.0 3.0 0.00 0.00 0.00 70 1011.2
20260505164405 55 314 0.0 2.0 0.00 0.00 0.00 70 1011.2
20260505163407 56 229 0.0 2.0 0.00 0.00 0.00 70 1011.2
20260505162907 56 62 0.0 3.0 0.00 0.00 0.00 70 1011.2
20260505162404 56 53 0.0 3.0 0.00 0.00 0.00 72 1011.2
20260505161332 57 49 0.0 3.0 0.00 0.00 0.00 70 1011.1
20260505160833 57 186 0.0 3.0 0.00 0.00 0.00 71 1011.1
20260505152802 58 206 0.0 2.0 0.00 0.00 0.00 69 1011.1
20260505151809 58 203 0.0 3.0 0.00 0.00 0.00 67 1011.2
20260505151306 58 53 0.0 2.0 0.00 0.00 0.00 66 1011.2
20260505150806 58 179 0.0 1.0 0.00 0.00 0.00 68 1011.2
20260505150306 57 59 0.0 4.0 0.00 0.00 0.00 65 1011.0
20260505130107 60 36 0.0 5.0 0.00 0.00 0.00 62 1011.7
20260505124534 61 256 0.0 4.0 0.00 0.00 0.00 61 1011.7
20260505124038 60 53 0.0 4.0 0.00 0.00 0.00 60 1011.6
20260505123534 61 262 0.0 3.0 0.00 0.00 0.00 60 1011.7
20260505123040 61 51 0.0 2.0 0.00 0.00 0.00 60 1011.7
20260505122530 61 246 0.0 4.0 0.00 0.00 0.00 60 1011.7
20260505121525 60 17 0.0 4.0 0.00 0.00 0.00 61 1011.9
20260505121023 60 91 0.0 4.0 0.00 0.00 0.00 60 1011.9
20260505120524 60 32 0.0 4.0 0.00 0.00 0.00 62 1011.8
20260505120019 60 56 0.0 5.0 0.00 0.00 0.00 62 1011.9
20260505115516 60 242 0.0 5.0 0.00 0.00 0.00 62 1011.9
20260505114519 60 302 0.0 8.0 0.00 0.00 0.00 61 1011.9
20260505113007 61 280 0.0 2.0 0.00 0.00 0.00 63 1012.1
20260505112503 60 229 0.0 2.0 0.00 0.00 0.00 64 1012.2
20260505111945 60 14 0.0 3.0 0.00 0.00 0.00 61 1012.1
20260505111432 60 253 0.0 3.0 0.00 0.00 0.00 61 1012.2
20260505110934 61 45 0.0 3.0 0.00 0.00 0.00 61 1012.2
20260505110435 60 66 0.0 2.0 0.00 0.00 0.00 62 1012.2
20260505101346 59 105 0.0 4.0 0.00 0.00 0.00 68 1012.5
20260505100840 58 24 0.0 2.0 0.00 0.00 0.00 65 1012.5
20260505100339 58 45 0.0 2.0 0.00 0.00 0.00 67 1012.4
20260505095816 58 278 0.0 3.0 0.00 0.00 0.00 65 1012.5
20260505094814 59 58 0.0 2.0 0.00 0.00 0.00 65 1012.4
20260505094304 59 47 0.0 2.0 0.00 0.00 0.00 65 1012.3
20260505093807 59 37 0.0 2.0 0.00 0.00 0.00 65 1012.3
20260505093305 59 46 0.0 2.0 0.00 0.00 0.00 66 1012.2
20260505092734 58 77 0.0 5.0 0.00 0.00 0.00 65 1012.2
20260505092233 58 310 0.0 5.0 0.00 0.00 0.00 67 1012.1
20260505091209 58 319 0.0 5.0 0.00 0.00 0.00 69 1012.2
20260505090708 57 300 0.0 4.0 0.00 0.00 0.00 66 1012.2
20260505090211 57 46 0.0 1.0 0.00 0.00 0.00 65 1012.2
20260505085705 57 42 0.0 5.0 0.00 0.00 0.00 67 1012.3
20260505085204 57 303 0.0 5.0 0.00 0.00 0.00 67 1012.3
20260505084705 57 61 0.0 5.0 0.00 0.00 0.00 68 1012.4
20260505084145 57 252 0.0 5.0 0.00 0.00 0.00 68 1012.5
20260505083632 57 29 0.0 3.0 0.00 0.00 0.00 67 1012.4
20260505083133 56 39 0.0 2.0 0.00 0.00 0.00 70 1012.5
20260505082611 56 22 0.0 2.0 0.00 0.00 0.00 69 1012.6
20260505081605 56 254 0.0 2.0 0.00 0.00 0.00 70 1012.6
20260505081105 56 15 0.0 2.0 0.00 0.00 0.00 71 1012.6
20260505080106 55 324 0.0 2.0 0.00 0.00 0.00 70 1012.6
20260505075603 55 180 0.0 2.0 0.00 0.00 0.00 71 1012.6
20260505075106 55 326 0.0 2.0 0.00 0.00 0.00 71 1012.6
20260505074606 55 301 0.0 1.0 0.00 0.00 0.00 71 1012.8
20260505074039 54 241 0.0 1.0 0.00 0.00 0.00 73 1012.9
20260505073535 54 223 0.0 1.0 0.00 0.00 0.00 72 1013.0
20260505072523 54 21 0.0 2.0 0.00 0.00 0.00 73 1012.9
20260505072028 54 229 0.0 2.0 0.00 0.00 0.00 75 1012.9
20260505071526 54 57 0.0 2.0 0.00 0.00 0.00 75 1012.8
20260505071020 53 69 0.0 1.0 0.00 0.00 0.00 77 1012.8
20260505070518 53 255 0.0 1.0 0.00 0.00 0.00 77 1012.8
20260505065451 52 37 0.0 1.0 0.00 0.00 0.00 79 1012.9
20260505064443 51 65 0.0 1.0 0.00 0.00 0.00 83 1012.9
20260505063933 51 70 0.0 1.0 0.00 0.00 0.00 84 1012.8
20260505063432 50 277 0.0 1.0 0.00 0.00 0.00 84 1012.9
20260505062923 50 277 0.0 1.0 0.00 0.00 0.00 84 1012.9
20260505062406 50 211 0.0 0.0 0.00 0.00 0.00 84 1012.9
20260505061909 50 43 0.0 0.0 0.00 0.00 0.00 85 1013.0
20260505061405 50 32 0.0 0.0 0.00 0.00 0.00 85 1013.0
20260505060903 50 294 0.0 0.0 0.00 0.00 0.00 85 1012.9
20260505060405 50 271 0.0 0.0 0.00 0.00 0.00 86 1013.0
20260505055904 50 269 0.0 0.0 0.00 0.00 0.00 86 1013.0
20260505054904 49 85 0.0 0.0 0.00 0.00 0.00 87 1013.0
20260505054404 49 86 0.0 0.0 0.00 0.00 0.00 87 1013.0
20260505053905 49 65 0.0 0.0 0.00 0.00 0.00 87 1012.9
20260505053405 49 65 0.0 0.0 0.00 0.00 0.00 87 1012.8
20260505052836 49 65 0.0 0.0 0.00 0.00 0.00 87 1012.8
20260505052332 49 56 0.0 0.0 0.00 0.00 0.00 87 1012.7
20260505050831 49 55 0.0 0.0 0.00 0.00 0.00 86 1012.6
20260505050350 49 55 0.0 0.0 0.00 0.00 0.00 86 1012.5
20260505041733 49 52 0.0 0.0 0.00 0.00 0.00 84 1012.7
20260505041206 49 52 0.0 0.0 0.00 0.00 0.00 83 1012.8
20260505040706 49 52 0.0 0.0 0.00 0.00 0.00 83 1012.7
20260505040207 50 44 0.0 0.0 0.00 0.00 0.00 83 1012.6
20260505035706 50 44 0.0 2.0 0.00 0.00 0.00 83 1012.5
20260505035206 50 44 0.0 2.0 0.00 0.00 0.00 83 1012.6
20260505034704 50 46 0.0 1.0 0.00 0.00 0.00 83 1012.6
20260505033705 50 27 0.0 1.0 0.00 0.00 0.00 84 1012.7
20260505033133 50 54 0.0 1.0 0.00 0.00 0.00 84 1012.7
20260505032632 50 64 0.0 0.0 0.00 0.00 0.00 85 1012.6
20260505032131 50 93 0.0 1.0 0.00 0.00 0.00 85 1012.6
20260505031634 50 63 0.0 1.0 0.00 0.00 0.00 86 1012.5
20260505031117 50 120 0.0 0.0 0.00 0.00 0.00 86 1012.6
20260505030612 51 87 0.0 1.0 0.00 0.00 0.00 86 1012.6
20260505030105 51 272 0.0 1.0 0.00 0.00 0.00 86 1012.5
20260505025537 51 269 0.0 0.0 0.00 0.00 0.00 86 1012.6
20260505025035 51 94 0.0 1.0 0.00 0.00 0.00 86 1012.6
20260505024533 51 120 0.0 1.0 0.00 0.00 0.00 86 1012.6
20260505024036 51 41 0.0 0.0 0.00 0.00 0.00 86 1012.7
20260505023034 51 38 0.0 0.0 0.00 0.00 0.00 86 1012.8
20260505021540 51 83 0.0 0.0 0.00 0.00 0.00 86 1012.9
20260505021035 51 84 0.0 0.0 0.00 0.00 0.00 86 1013.0
20260505020537 51 87 0.0 0.0 0.00 0.00 0.00 87 1013.0
20260505020025 51 105 0.0 1.0 0.00 0.00 0.00 87 1013.0
20260505015512 51 82 0.0 1.0 0.00 0.00 0.00 87 1012.9
20260505015019 51 81 0.0 0.0 0.00 0.00 0.00 87 1013.0
20260505014519 51 81 0.0 0.0 0.00 0.00 0.00 87 1013.0
20260505013519 51 58 0.0 0.0 0.00 0.00 0.00 87 1013.0
20260505013021 51 139 0.0 0.0 0.00 0.00 0.00 87 1013.0
20260505012522 51 43 0.0 0.0 0.00 0.00 0.00 87 1013.1
20260505012024 51 93 0.0 0.0 0.00 0.00 0.00 87 1013.2
20260505011454 51 78 0.0 0.0 0.00 0.00 0.00 87 1013.3
20260505010935 51 81 0.0 0.0 0.00 0.00 0.00 87 1013.3
20260505010434 51 46 0.0 0.0 0.00 0.00 0.00 87 1013.3
20260505005909 51 46 0.0 0.0 0.00 0.00 0.00 87 1013.3
20260505005405 51 46 0.0 0.0 0.00 0.00 0.00 87 1013.4
20260505004405 51 43 0.0 0.0 0.00 0.00 0.00 87 1013.5
20260505003903 51 84 0.0 0.0 0.00 0.00 0.00 87 1013.5
20260505003406 51 86 0.0 0.0 0.00 0.00 0.00 87 1013.5
20260505002904 51 61 0.0 1.0 0.00 0.00 0.00 87 1013.4
20260505002405 51 128 0.0 1.0 0.00 0.00 0.00 87 1013.5
20260505001912 51 69 0.0 0.0 0.00 0.00 0.00 87 1013.7
20260505001339 51 44 0.0 0.0 0.00 0.00 0.00 87 1013.7
20260505000825 51 39 0.0 0.0 0.00 0.00 0.00 87 1013.7
20260505000312 51 103 0.0 0.0 0.00 0.00 0.00 87 1013.8
20260504235806 51 103 0.0 0.0 0.00 0.00 0.00 87 1013.9
20260504235308 51 63 0.0 0.0 0.00 0.00 0.00 87 1013.9
20260504234807 51 49 0.0 0.0 0.00 0.00 0.00 87 1013.9
20260504234306 51 49 0.0 0.0 0.00 0.00 0.00 87 1013.9
20260504233807 51 47 0.0 0.0 0.00 0.00 0.00 87 1013.9
20260504232733 51 233 0.0 0.0 0.00 0.00 0.00 87 1014.0
20260504232232 52 233 0.0 0.0 0.00 0.00 0.00 87 1014.0
20260504231733 52 229 0.0 0.0 0.00 0.00 0.00 87 1014.0
20260504231207 52 230 0.0 0.0 0.00 0.00 0.00 87 1014.0
20260504230706 52 73 0.0 1.0 0.00 0.00 0.00 88 1014.0